Probability
0 0 0 0 0 0 0 0 0 0 0 0 0 0 0 0 0 0 0 0 0 0 0 0 0 0 0 0 0 0 0 0 0 0 0 0 0 0 0 0 0 0 0
0 0 0 0 0 0 0 0 0 0 0 0 0 0 0 0 0 0 0 0 0 0 0 0 0 0 0 0 0 0 0 0 0 0 0 0 0 0 0 0 0 0 0
0 0 0 0 0 0 0 0 0 0 0 0 0 0 0 0 0 0 0 0 0 0 0 0 0 0 0 0 0 0 0 0 0 0 0 0 0 0 0 0 0 0 0
0 0 0 0 0 0 0 0 0 0 0 0 0 0 0 0 0 0 0 0 0 0 0 0 0 0 0 0 0 0 0 0 0 0 0 0 0 0 0 0 0 0 0
0 0 0 0 0 0 0 0 0 0 0 0 0 0 0 0 0 0 0 0 0 0 0 0 0 0 1 1 1 0 0 0 0 0 0 0 0 0 0 0 0 0 0
0 0 0 0 0 0 0 0 0 0 0 0 0 0 0 0 0 0 0 0 0 0 0 0 0 0 1 2 2 1 0 0 0 0 0 0 0 0 0 0 0 0 0
0 0 0 0 0 0 0 0 0 0 0 0 0 0 0 0 0 0 0 0 0 0 0 0 0 0 0 1 2 2 1 0 0 0 0 0 0 0 0 0 0 0 0
0 0 0 0 0 0 0 0 0 0 0 0 0 0 0 0 0 0 0 0 0 0 0 0 0 0 0 0 1 1 1 0 0 0 0 0 0 0 0 0 0 0 0
0 0 0 0 0 0 0 0 0 0 0 0 0 0 0 0 0 0 0 0 0 0 0 0 0 0 0 0 0 0 1 1 0 0 0 0 0 0 0 0 0 0 0
0 0 0 0 0 0 0 0 0 0 0 0 0 0 0 0 0 0 0 0 0 0 0 0 0 0 0 0 0 0 0 0 0 0 0 0 0 0 0 0 0 0 0
0 0 0 0 0 0 0 0 0 0 0 0 0 0 0 0 0 0 0 0 0 0 0 0 0 0 0 0 0 0 0 0 0 0 0 0 0 0 0 0 0 0 0
0 0 0 0 0 0 0 0 0 0 0 0 0 0 0 0 0 0 0 0 0 0 0 0 0 0 0 0 0 0 0 0 0 0 0 0 0 0 0 0 0 0 0
0 0 0 0 0 0 0 0 0 0 0 0 0 0 0 0 0 0 0 0 0 0 0 0 0 0 0 0 0 0 0 0 0 0 0 0 0 0 0 0 0 0 0
0 0 0 0 0 0 0 0 0 0 0 0 0 0 0 0 0 0 0 0 0 0 0 0 0 0 0 0 0 0 0 0 0 0 0 0 0 0 0 0 0 0 0
0 0 0 0 0 0 0 0 0 0 0 0 0 0 0 0 0 0 0 0 0 0 0 0 0 0 0 0 0 0 0 0 0 0 0 0 0 0 0 0 0 0 0
0 0 0 0 0 0 0 0 0 0 0 0 0 0 0 0 0 0 0 0 0 0 0 0 0 0 0 0 0 0 0 0 0 0 0 0 0 0 0 0 0 0 0
0 0 0 0 0 0 0 0 0 0 0 0 0 0 0 0 0 0 0 0 0 0 0 0 0 0 0 0 0 0 0 0 0 0 0 0 0 0 0 0 0 0 0
0 0 0 0 0 0 0 0 0 0 0 0 0 0 0 0 0 0 0 0 0 0 0 0 0 0 0 0 0 0 0 0 0 0 0 0 0 0 0 0 0 0 0
0 0 0 0 0 0 0 0 0 0 0 0 0 0 0 0 0 0 0 0 0 0 0 0 0 0 0 0 0 0 0 0 0 0 0 0 0 0 0 0 0 0 0
0 0 0 0 0 0 0 0 0 0 0 0 0 0 0 0 0 0 0 0 0 0 0 0 0 0 0 0 0 0 0 0 0 0 0 0 0 0 0 0 0 0 0
0 0 0 0 0 0 0 0 0 0 0 0 0 0 0 0 0 0 0 0 0 0 0 0 0 0 0 0 0 0 0 0 0 0 0 0 0 0 0 0 0 0 0
0 0 0 0 0 0 0 0 0 0 0 0 0 0 0 0 0 0 0 0 0 0 0 0 0 0 0 0 0 0 0 0 0 0 0 0 0 0 0 0 0 0 0
0 0 0 0 0 0 0 0 0 0 0 0 0 0 0 0 0 0 0 0 0 0 0 0 0 0 0 0 0 0 0 0 0 0 0 0 0 0 0 0 0 0 0
0 0 0 0 0 0 0 0 0 0 0 0 0 0 0 0 0 0 0 0 0 0 0 0 0 0 0 0 0 0 0 0 0 0 0 0 0 0 0 0 0 0 0
0 0 0 0 0 0 0 0 0 0 0 0 0 0 0 0 0 0 0 0 0 0 0 0 0 0 0 0 0 0 0 0 0 0 0 0 0 0 0 0 0 0 0
0 0 0 0 0 0 0 0 0 0 0 0 0 0 0 0 0 0 0 0 0 0 0 0 0 0 0 0 0 0 0 0 0 0 0 0 0 0 0 0 0 0 0
Wind_Speed
3 3 2 2 3 2 2 3 3 3 3 3 2 2 3 3 3 3 3 7 8 9 9 8 8 7 7 6 5 5 4 4 3 3 3 3 3 4 4 5 5 6 7
4 4 3 3 3 3 4 4 4 3 3 3 4 4 4 4 4 4 4 5 8 9 10 11 10 10 9 9 8 7 7 6 5 4 4 4 3 3 4 4 4 5 6
5 4 4 4 4 4 4 3 4 3 3 3 5 5 4 5 5 5 5 4 4 8 11 13 13 12 12 11 11 10 9 8 8 7 6 5 5 4 4 3 3 4 4
6 5 5 5 5 4 4 4 4 4 4 4 5 5 5 4 6 6 5 5 5 5 8 14 14 15 14 14 13 12 12 11 10 9 8 7 7 6 5 5 4 3 3
7 6 6 5 5 5 5 5 5 4 5 6 6 6 5 5 6 6 7 7 7 7 6 10 14 14 14 16 16 15 14 14 13 12 11 10 9 8 7 6 5 4 4
6 6 6 6 5 5 5 6 7 6 5 5 5 5 5 5 5 6 7 7 7 9 8 8 7 9 14 17 18 18 17 16 15 14 13 12 11 10 9 8 7 7 6
5 6 5 5 5 6 7 7 6 6 6 3 2 4 4 5 6 6 6 5 7 8 8 9 7 6 7 15 19 20 19 18 18 17 16 15 14 12 11 11 10 8 7
2 3 5 5 5 5 6 6 6 4 4 4 4 3 4 3 5 7 5 6 8 5 7 9 8 8 7 6 11 18 21 21 20 19 18 17 16 15 13 12 11 10 9
2 2 3 4 4 5 5 6 6 7 6 4 5 5 4 5 3 3 4 5 6 5 6 6 8 9 9 8 7 14 18 19 21 20 20 19 18 16 15 14 13 12 10
3 2 3 3 3 4 5 5 5 6 6 5 4 5 6 3 3 4 2 3 4 6 7 6 7 8 8 7 9 13 16 18 22 22 21 19 19 18 17 16 15 13 11
3 3 3 3 3 3 4 4 4 5 5 5 4 4 5 4 4 5 6 3 3 4 5 5 5 6 7 8 7 11 16 20 23 22 21 20 19 19 18 17 15 13 11
2 4 4 3 3 3 4 4 4 5 4 5 4 4 4 4 4 5 7 5 4 3 3 4 5 5 5 6 9 13 16 20 22 23 23 22 19 17 16 14 12 11 9
3 4 4 4 3 4 4 4 3 4 4 4 4 4 4 5 4 4 5 5 4 2 2 2 3 3 3 3 5 11 15 19 21 23 23 21 18 16 12 11 10 8 5
3 4 4 4 4 4 4 3 2 2 2 2 2 2 2 2 2 3 3 3 4 3 2 4 1 1 2 2 4 8 8 16 19 21 21 19 16 11 9 9 8 7 5
2 4 4 4 5 5 5 4 3 3 2 2 2 2 2 2 1 1 1 2 3 4 3 2 1 2 2 1 4 4 4 12 16 17 18 15 11 9 9 8 7 7 6
4 4 5 5 6 6 6 5 4 5 5 5 4 4 4 3 3 3 2 1 1 3 3 0 1 2 2 2 4 2 3 10 13 14 14 12 10 9 8 8 7 7 8
5 5 5 6 6 7 7 6 7 7 7 7 7 7 7 6 4 4 4 3 2 1 2 1 1 2 2 2 2 2 1 1 2 7 8 7 7 7 7 8 8 9 10
5 5 5 6 7 7 7 7 7 7 8 8 7 7 7 5 6 5 4 5 4 3 2 1 1 2 3 2 3 3 3 3 3 2 1 1 2 4 5 6 7 9 10
5 6 6 7 7 7 7 7 7 8 8 8 8 8 7 7 6 5 5 5 3 3 2 1 2 2 2 2 2 3 3 3 3 4 4 4 3 3 4 6 7 8 9
5 6 6 6 6 7 7 7 7 8 8 8 8 7 7 6 5 5 5 5 4 4 3 2 2 2 2 2 2 2 2 3 3 3 3 3 4 5 5 6 7 8 8
6 6 6 6 6 6 6 6 6 7 7 7 7 7 8 9 10 7 5 4 4 4 3 3 2 2 3 3 3 2 2 2 2 3 2 2 2 2 3 5 7 9 11
6 6 7 6 7 6 11 12 8 6 6 6 6 6 6 8 11 13 13 11 9 5 3 2 2 3 3 3 2 2 2 2 1 2 2 2 1 3 3 3 8 12 13
5 6 6 6 6 8 12 12 12 7 6 5 5 4 4 6 7 5 8 11 11 13 10 3 3 2 2 2 2 2 2 1 1 1 1 2 2 3 3 5 11 12 13
4 4 5 5 4 6 10 11 11 6 5 4 4 4 4 4 4 4 4 5 5 5 6 4 2 1 1 1 0 0 0 1 2 2 1 2 2 3 3 3 9 11 12
3 3 3 4 4 4 7 8 7 3 3 4 3 3 3 3 7 7 4 3 4 4 6 7 6 5 6 4 1 1 1 1 2 2 0 1 2 3 3 3 4 6 6
3 3 2 2 2 3 4 5 6 2 2 2 2 4 6 5 7 6 3 2 2 2 2 4 5 6 5 5 5 1 2 2 1 3 2 1 2 3 4 3 2 3 4
Wind_Direction
195 201 210 213 217 214 216 224 233 245 255 262 254 245 252 249 244 238 249 253 248 238 229 225 221 221 221 221 219 207 202 197 186 172 159 143 128 117 111 106 102 98 91
199 204 215 218 222 218 219 221 228 236 246 253 262 249 244 244 239 235 233 249 247 240 234 231 229 226 225 224 223 217 213 212 209 201 191 176 162 146 131 119 112 105 98
204 207 214 221 225 220 220 226 236 235 245 244 253 251 241 235 233 230 227 226 238 240 234 233 234 231 229 228 227 222 218 218 217 213 207 199 191 180 162 149 134 118 108
208 209 218 226 222 214 213 221 225 232 241 240 246 247 238 232 232 229 222 220 221 227 232 233 234 234 231 230 229 225 220 219 220 219 216 212 208 202 193 183 169 154 137
213 213 223 227 214 215 218 225 223 218 235 238 240 245 239 235 237 231 224 221 220 220 220 230 230 230 229 230 230 228 223 217 217 219 219 217 214 213 209 202 195 192 186
218 218 227 226 211 216 223 222 228 222 231 238 245 251 243 237 233 231 232 226 222 223 221 222 226 229 227 227 230 231 227 220 216 217 220 219 218 219 217 214 211 211 210
224 221 230 226 214 221 227 222 223 230 236 217 235 267 260 237 236 235 229 227 229 226 221 221 221 219 226 227 227 229 230 226 219 217 218 219 219 219 221 221 220 220 221
250 237 236 236 224 227 232 228 218 222 226 185 194 235 283 289 253 237 227 228 235 228 226 225 221 220 218 219 225 226 228 229 225 220 217 218 219 219 222 225 225 224 225
296 276 262 254 245 233 238 234 223 225 239 218 199 209 238 252 280 275 241 237 237 230 234 230 225 225 224 222 224 226 224 226 228 227 222 219 219 219 222 224 227 227 226
331 320 301 281 266 253 248 245 232 229 234 239 214 223 235 238 250 285 265 253 242 239 238 235 231 229 226 226 227 227 225 222 227 232 231 226 221 221 222 224 226 226 226
341 344 331 318 298 278 269 261 251 237 232 237 222 209 228 238 232 252 272 265 270 251 241 234 232 230 226 224 225 228 228 228 230 233 235 234 231 227 225 225 226 225 223
336 349 342 332 315 303 293 281 267 254 245 243 238 213 205 210 212 225 254 254 251 254 244 237 234 234 229 226 228 227 227 230 233 235 235 234 234 234 233 228 225 224 219
336 339 342 334 327 317 308 301 289 278 262 252 248 239 225 228 217 220 249 265 259 253 258 261 250 249 243 231 237 233 231 232 234 236 236 233 230 231 232 230 222 215 210
324 337 343 344 340 335 332 326 319 317 317 300 292 283 261 257 241 231 238 262 278 265 246 257 308 314 302 278 254 240 239 236 236 237 237 234 228 221 216 218 212 204 209
349 3 6 8 4 2 359 359 12 3 16 18 10 8 2 354 351 317 278 250 262 279 273 244 274 354 327 303 265 241 234 238 236 237 239 235 221 210 208 208 213 220 230
21 24 27 27 25 21 18 26 28 27 42 36 32 38 36 19 19 12 355 329 277 267 275 2 359 347 322 306 279 265 241 241 239 238 236 229 213 204 196 200 218 232 243
34 38 38 40 39 35 32 42 45 43 51 47 41 47 41 32 33 24 19 18 9 337 280 354 43 352 340 342 353 9 16 277 268 246 240 223 201 200 207 218 233 245 253
45 46 47 50 49 45 42 48 53 52 55 53 47 47 39 37 39 31 30 27 18 8 347 325 14 5 3 5 19 34 38 42 40 18 319 249 218 223 230 236 246 253 257
55 53 55 56 54 52 52 54 61 62 60 56 51 50 42 43 42 35 35 30 18 17 17 40 24 21 8 15 30 37 43 34 37 33 27 17 354 319 285 268 264 266 269
63 58 58 62 64 62 60 59 64 65 63 57 51 49 44 45 47 43 38 26 21 26 26 38 36 29 24 14 32 32 36 32 28 26 23 12 358 349 327 309 297 291 285
66 61 62 61 64 68 67 66 63 66 65 61 51 44 44 47 51 55 53 36 33 34 31 34 30 26 25 18 20 15 31 26 29 21 7 4 357 343 331 314 302 290 281
67 63 60 59 59 66 75 78 77 64 63 60 50 36 36 40 43 45 49 47 47 46 38 36 30 34 20 12 11 19 27 28 360 13 5 319 313 287 279 266 276 277 273
73 66 57 57 58 68 77 79 79 73 65 57 50 39 35 34 47 38 41 42 38 43 51 67 55 32 13 355 13 20 26 30 306 315 358 296 304 282 276 279 287 281 274
79 73 60 52 51 62 77 81 82 73 65 53 44 39 33 11 36 57 51 38 28 26 39 52 73 9 320 296 144 140 136 2 300 280 192 274 297 282 286 290 297 290 277
88 78 66 53 45 35 67 88 90 75 62 39 22 22 25 4 17 46 59 38 18 1 14 24 22 11 4 354 5 106 70 36 320 297 266 253 301 301 293 296 310 326 328
113 99 71 49 33 3 37 88 105 97 69 32 10 4 6 6 5 25 83 41 354 328 348 356 1 360 1 360 22 104 164 163 224 286 287 246 301 339 321 299 287 301 318